GFSSGP_prec_pwat_273.txt.gz
Precipitable_Water
2.14 2.28 2.35 2.02 1.19 0.94 0.75 0.81 1.02 0.94 0.88 1.20 1.28 1.24 1.05 1.05 1.08 0.73 1.45 1.64 1.49 1.49 1.65 1.73 1.81 1.81 1.78 1.76 1.75 1.73 1.82 1.77 1.57 1.62 1.76 1.77 1.64 1.63 1.87 1.75 1.74 1.79 1.77 1.76 1.77 1.72 1.69 1.68 1.79
2.22 2.14 1.99 1.61 0.93 0.62 0.75 0.87 0.82 0.92 1.20 1.28 1.26 1.26 1.10 0.86 1.09 1.21 1.35 1.63 1.46 1.43 1.51 1.58 1.66 1.76 1.77 1.75 1.69 1.74 1.63 1.82 1.65 1.80 1.83 1.79 1.81 1.85 1.81 1.77 1.81 1.74 1.68 1.68 1.70 1.72 1.75 1.77 1.80
2.12 2.18 1.56 1.20 0.75 0.60 0.76 1.19 0.95 1.01 1.29 1.31 1.06 1.14 1.01 0.91 1.20 1.29 1.55 1.56 1.43 1.41 1.48 1.57 1.58 1.70 1.73 1.73 1.71 1.78 1.77 1.89 1.90 1.73 1.68 1.68 1.67 1.76 1.79 1.68 1.63 1.73 1.59 1.69 1.78 1.64 1.68 1.76 1.80
1.77 1.79 1.54 0.90 0.71 0.84 0.99 1.06 1.12 1.13 1.05 1.10 1.07 0.77 0.99 1.25 1.25 1.41 1.55 1.48 1.39 1.49 1.52 1.56 1.60 1.70 1.79 1.73 1.68 1.82 1.94 1.82 1.83 1.76 1.74 1.72 1.75 1.80 1.89 1.92 1.70 1.55 1.61 1.59 1.71 1.66 1.62 1.62 1.67
1.78 1.31 0.89 0.77 0.79 0.85 1.08 1.13 1.01 0.85 0.94 1.03 0.98 0.80 0.89 1.18 1.37 1.42 1.45 1.46 1.44 1.56 1.48 1.54 1.59 1.69 1.85 1.81 1.68 1.78 1.79 1.89 1.74 1.78 1.79 1.81 1.72 1.72 1.74 1.77 1.72 1.64 1.54 1.56 1.66 1.72 1.71 1.53 1.38
1.30 1.28 0.82 0.71 0.73 0.91 1.01 1.01 1.16 0.90 0.97 1.04 1.05 0.84 0.90 1.22 1.18 1.30 1.40 1.50 1.58 1.52 1.50 1.54 1.66 1.67 1.80 1.74 1.75 1.92 1.83 1.82 1.77 1.79 1.79 1.77 1.82 1.82 1.85 1.79 1.83 1.85 1.81 1.66 1.59 1.62 1.71 1.77 1.65
1.20 1.03 0.80 0.76 0.75 0.85 1.09 1.31 1.07 1.06 1.18 1.06 1.22 0.86 0.88 1.04 1.19 1.29 1.48 1.59 1.66 1.57 1.46 1.52 1.69 1.67 1.71 1.70 1.73 1.86 1.75 1.65 1.75 1.85 1.89 2.00 1.91 1.81 1.80 1.80 1.82 1.78 1.78 1.85 1.82 1.67 1.68 1.86 1.79
1.04 0.96 0.75 0.75 0.72 0.82 1.17 1.21 1.17 1.11 1.05 1.30 1.22 0.86 0.77 0.93 1.18 1.33 1.51 1.57 1.58 1.48 1.43 1.45 1.53 1.59 1.61 1.64 1.68 1.75 1.72 1.75 1.82 1.81 1.84 1.90 1.94 1.93 1.87 1.94 2.03 1.95 1.90 1.88 1.81 1.78 1.76 1.83 1.87
1.00 0.73 0.62 0.67 0.80 0.92 1.04 0.97 1.05 1.21 1.01 1.16 1.11 0.95 0.97 1.05 1.21 1.30 1.38 1.46 1.49 1.41 1.40 1.57 1.56 1.51 1.52 1.57 1.59 1.62 1.66 1.70 1.67 1.65 1.70 1.85 1.91 1.93 1.91 2.01 1.97 1.89 1.89 1.89 1.91 1.89 1.87 1.90 1.82
0.80 0.65 0.55 0.72 0.82 0.81 0.91 0.91 0.99 1.07 0.98 1.03 0.99 1.03 1.06 1.08 1.20 1.22 1.28 1.28 1.36 1.42 1.39 1.49 1.50 1.56 1.59 1.52 1.58 1.60 1.55 1.64 1.71 1.70 1.73 1.90 2.06 2.12 2.04 1.95 1.87 1.87 1.89 1.97 1.85 1.86 1.90 1.93 1.89
0.67 0.54 0.58 0.66 0.71 0.84 0.88 0.87 1.01 1.09 0.98 1.00 0.93 0.93 1.04 1.06 1.15 1.22 1.31 1.34 1.36 1.43 1.46 1.54 1.55 1.63 1.72 1.75 1.77 1.70 1.69 1.79 1.87 1.85 2.00 2.02 2.05 2.13 2.07 1.90 1.88 1.98 2.02 1.93 1.96 1.95 1.98 2.08 2.01
0.58 0.53 0.53 0.62 0.73 0.88 0.87 1.07 0.92 0.95 1.05 1.15 1.09 1.04 1.11 1.12 1.14 1.23 1.28 1.35 1.41 1.40 1.44 1.55 1.59 1.61 1.73 1.84 1.81 1.75 1.80 1.84 1.86 1.88 2.08 2.08 2.13 2.10 2.06 1.92 2.05 2.07 2.05 1.99 2.09 2.08 2.13 2.03 2.03
0.56 0.62 0.57 0.59 0.60 0.84 0.93 0.87 0.95 1.12 1.17 1.26 1.05 1.03 1.07 1.15 1.22 1.30 1.39 1.40 1.45 1.41 1.47 1.52 1.60 1.61 1.66 1.71 1.76 1.76 1.80 1.81 1.87 1.86 1.97 2.09 2.16 2.15 2.16 2.04 2.17 2.18 2.16 2.05 2.04 2.12 2.11 2.11 2.06
0.64 0.62 0.55 0.53 0.59 0.79 0.81 0.86 0.95 1.21 1.42 1.14 1.09 1.12 1.09 1.14 1.22 1.31 1.35 1.45 1.46 1.49 1.51 1.65 1.62 1.63 1.69 1.66 1.68 1.60 1.74 1.80 1.88 1.84 1.87 1.94 2.00 2.06 2.15 2.16 2.13 2.15 2.22 2.16 2.11 2.09 2.10 2.12 2.19
0.65 0.47 0.52 0.54 0.57 0.64 0.70 0.66 0.86 1.08 1.76 1.43 1.45 1.45 1.26 1.19 1.26 1.30 1.36 1.45 1.52 1.57 1.66 1.64 1.62 1.64 1.57 1.60 1.66 1.66 1.65 1.74 1.77 1.80 1.84 1.83 1.90 1.92 1.98 2.07 2.11 2.14 2.16 2.20 2.15 2.12 2.10 2.04 2.09
0.62 0.52 0.47 0.58 0.61 0.67 0.56 0.49 0.79 1.10 1.31 1.11 1.30 1.56 1.41 1.27 1.25 1.33 1.39 1.47 1.64 1.74 1.70 1.78 1.83 1.81 1.75 1.73 1.65 1.65 1.67 1.75 1.88 1.91 1.95 1.96 1.99 1.90 1.87 1.95 2.00 2.08 2.16 2.19 2.17 2.16 2.14 2.08 2.04
0.60 0.49 0.58 0.62 0.68 0.62 0.60 0.56 0.81 1.01 1.07 1.03 1.05 1.25 1.37 1.21 1.40 1.32 1.39 1.59 1.81 1.81 1.72 1.79 1.90 2.03 1.94 1.89 1.93 1.93 1.89 1.92 1.93 1.95 2.03 2.12 2.17 2.04 1.96 2.01 2.04 2.08 2.16 2.13 2.11 2.07 2.08 2.05 2.08
0.54 0.60 0.63 0.61 0.65 0.60 0.61 0.58 0.67 0.87 1.00 1.08 1.03 1.12 1.06 1.15 1.38 1.32 1.41 1.54 1.71 1.84 1.79 1.70 1.73 1.89 2.06 2.08 2.09 2.16 2.03 1.99 1.97 2.03 2.29 2.22 2.04 2.05 2.19 2.18 2.37 2.29 2.22 2.22 2.12 2.12 2.20 2.14 2.05
0.74 0.70 0.60 0.61 0.66 0.56 0.53 0.59 0.68 0.92 1.04 1.02 0.87 0.99 0.93 1.18 1.25 1.31 1.39 1.36 1.62 1.71 1.72 1.73 1.73 1.72 2.01 2.04 2.02 1.95 1.94 2.00 1.98 1.91 1.98 1.92 1.69 1.72 1.91 2.12 2.27 2.36 2.20 2.04 2.07 2.13 2.17 2.09 2.25
0.70 0.65 0.64 0.69 0.67 0.60 0.48 0.53 0.72 0.93 0.99 0.97 0.86 0.96 1.15 0.93 1.17 1.31 1.44 1.40 1.40 1.51 1.63 1.74 1.77 1.79 1.92 2.05 2.02 2.12 2.07 2.07 2.08 2.07 1.84 1.70 1.65 1.59 1.58 1.75 1.89 1.97 1.88 1.95 1.91 1.95 1.93 2.06 2.16
0.68 0.63 0.64 0.57 0.60 0.59 0.42 0.46 0.70 0.84 1.02 1.04 1.01 1.12 1.08 1.10 1.19 1.26 1.43 1.50 1.55 1.34 1.49 1.62 1.66 1.63 1.72 1.89 1.97 2.00 2.08 2.17 1.94 1.73 1.71 1.79 1.67 1.64 1.67 1.61 1.67 1.74 1.87 1.79 1.89 1.98 2.02 1.91 2.08
0.56 0.72 0.70 0.55 0.53 0.39 0.50 0.40 0.58 0.65 0.73 0.81 0.82 1.07 1.18 0.91 1.33 1.42 1.43 1.48 1.55 1.43 1.47 1.59 1.57 1.73 1.79 1.85 1.87 1.81 1.70 1.67 1.74 1.65 1.68 1.72 1.64 1.83 1.93 1.90 1.77 1.73 1.74 1.78 1.90 1.95 1.96 1.97 1.90
0.60 0.74 0.63 0.57 0.53 0.48 0.40 0.44 0.57 0.67 0.59 0.60 0.69 1.06 1.27 1.31 1.54 1.46 1.40 1.45 1.49 1.47 1.44 1.54 1.61 1.70 1.77 1.74 1.73 1.71 1.69 1.70 1.87 1.80 1.68 1.59 1.67 1.77 1.92 1.95 1.81 1.71 1.60 1.74 1.80 1.84 1.89 1.99 1.93
0.66 0.70 0.60 0.60 0.54 0.40 0.47 0.48 0.55 0.60 0.59 0.58 0.70 0.98 1.35 1.44 1.51 1.58 1.48 1.50 1.41 1.39 1.36 1.47 1.50 1.54 1.67 1.65 1.53 1.57 1.59 1.54 1.54 1.55 1.49 1.47 1.45 1.40 1.43 1.41 1.44 1.27 1.23 1.43 1.56 1.68 1.84 2.00 2.10
0.53 0.63 0.46 0.50 0.41 0.38 0.53 0.50 0.60 0.74 0.69 0.71 0.73 0.84 1.22 1.30 1.32 1.38 1.47 1.44 1.33 1.22 1.22 1.38 1.39 1.37 1.49 1.52 1.56 1.57 1.57 1.52 1.44 1.43 1.39 1.16 1.15 1.17 1.18 1.10 0.94 1.04 1.13 1.26 1.43 1.59 1.81 1.94 2.08
0.46 0.54 0.43 0.37 0.38 0.42 0.54 0.49 0.52 0.70 0.74 0.76 0.86 0.91 1.06 1.11 1.20 1.26 1.37 1.33 1.29 1.18 1.29 1.40 1.43 1.46 1.60 1.62 1.60 1.66 1.66 1.57 1.40 1.31 1.19 0.99 1.00 1.00 0.93 0.96 1.01 1.06 1.06 1.13 1.30 1.45 1.74 1.80 1.84
0.43 0.44 0.51 0.51 0.51 0.46 0.52 0.61 0.67 0.71 0.77 0.71 0.80 0.92 0.94 0.99 1.08 1.19 1.33 1.24 1.17 1.23 1.36 1.47 1.52 1.57 1.62 1.64 1.67 1.63 1.64 1.58 1.45 1.09 0.96 0.95 1.01 1.06 1.20 1.12 1.01 1.04 1.01 1.06 1.13 1.27 1.42 1.67 1.70
0.41 0.53 0.45 0.51 0.42 0.39 0.47 0.51 0.53 0.70 0.76 0.71 0.83 0.92 0.97 1.00 1.06 1.15 1.10 1.12 1.19 1.32 1.45 1.57 1.61 1.57 1.65 1.68 1.66 1.61 1.56 1.40 1.22 1.23 1.13 1.19 1.26 1.28 1.38 1.31 1.13 1.00 0.99 0.99 1.10 1.20 1.24 1.26 1.52
0.39 0.42 0.55 0.51 0.50 0.42 0.42 0.51 0.74 0.76 0.79 0.84 0.99 0.97 0.98 0.99 1.03 1.11 1.13 1.27 1.31 1.42 1.53 1.58 1.61 1.57 1.63 1.70 1.55 1.49 1.55 1.43 1.47 1.37 1.39 1.33 1.36 1.41 1.40 1.46 1.22 1.05 1.00 1.06 1.08 1.02 0.90 0.84 1.00
0.45 0.38 0.49 0.46 0.41 0.42 0.49 0.51 0.78 0.80 0.86 0.85 1.00 1.12 1.02 1.05 1.08 1.14 1.22 1.33 1.40 1.46 1.56 1.56 1.57 1.60 1.70 1.66 1.53 1.47 1.51 1.46 1.47 1.52 1.52 1.52 1.48 1.50 1.44 1.48 1.48 1.23 1.09 1.16 1.09 1.00 0.90 0.77 0.77

GFSSGP_prec_pwat_276.txt.gz
Precipitable_Water
2.28 2.32 2.31 1.95 0.97 0.90 0.78 0.90 1.08 1.02 0.96 1.15 1.26 1.17 1.06 1.17 1.01 0.68 1.47 1.57 1.56 1.61 1.78 1.85 1.75 1.77 1.78 1.76 1.75 1.75 1.71 1.65 1.74 1.72 1.72 1.66 1.65 1.70 1.72 1.71 1.76 1.78 1.75 1.74 1.74 1.71 1.71 1.81 1.69
2.26 2.22 2.01 1.50 0.83 0.67 0.79 1.02 0.91 1.14 1.19 1.28 1.11 1.11 1.05 1.00 1.27 1.28 1.32 1.57 1.53 1.64 1.77 1.83 1.77 1.72 1.72 1.71 1.78 1.73 1.70 1.55 1.70 1.82 1.71 1.67 1.73 1.73 1.71 1.74 1.73 1.75 1.75 1.74 1.71 1.71 1.75 1.82 1.82
2.23 2.15 1.57 1.14 0.75 0.69 0.78 1.05 1.12 1.11 1.06 1.06 0.90 0.96 0.96 0.94 1.16 1.22 1.51 1.47 1.52 1.60 1.71 1.77 1.75 1.69 1.67 1.65 1.73 1.69 1.74 1.67 1.76 1.74 1.75 1.74 1.77 1.78 1.72 1.71 1.74 1.56 1.65 1.72 1.69 1.69 1.75 1.74 1.76
1.96 1.76 1.48 0.86 0.66 0.87 0.92 1.07 1.01 1.09 1.07 0.92 0.84 0.70 1.04 1.27 1.20 1.41 1.60 1.45 1.41 1.53 1.60 1.69 1.76 1.72 1.65 1.69 1.65 1.81 1.87 1.81 1.68 1.68 1.67 1.67 1.81 1.86 1.84 1.75 1.68 1.60 1.59 1.69 1.58 1.56 1.69 1.69 1.72
1.81 1.39 0.94 0.81 0.73 0.88 0.95 1.11 1.14 1.02 0.96 0.99 0.87 0.67 0.86 1.25 1.41 1.52 1.54 1.40 1.31 1.47 1.58 1.58 1.69 1.76 1.67 1.61 1.73 1.84 1.82 1.82 1.83 1.80 1.76 1.84 1.83 1.83 1.84 1.72 1.65 1.63 1.59 1.65 1.70 1.62 1.55 1.55 1.51
1.12 1.15 0.85 0.77 0.77 0.86 0.96 1.08 0.97 1.04 1.07 1.02 0.97 0.85 0.89 1.34 1.33 1.45 1.50 1.38 1.45 1.40 1.52 1.59 1.66 1.79 1.70 1.65 1.76 1.80 1.84 1.75 1.76 1.85 1.88 1.80 1.79 1.84 1.83 1.81 1.79 1.77 1.68 1.64 1.71 1.63 1.64 1.51 1.44
1.05 0.93 0.86 0.91 0.79 0.80 0.89 1.16 1.11 1.09 1.06 0.98 1.08 0.91 1.03 1.20 1.35 1.42 1.49 1.50 1.55 1.44 1.45 1.54 1.61 1.77 1.73 1.74 1.84 1.82 1.81 1.72 1.75 1.75 1.75 1.84 1.88 1.90 1.91 1.86 1.86 1.83 1.78 1.74 1.65 1.60 1.68 1.73 1.66
1.14 1.01 0.88 0.87 0.70 0.68 0.94 1.08 1.22 1.17 1.04 1.21 1.10 0.91 0.88 1.18 1.33 1.47 1.50 1.54 1.58 1.43 1.44 1.54 1.60 1.69 1.64 1.70 1.83 1.81 1.73 1.67 1.79 1.80 1.88 1.91 1.88 1.85 1.87 1.95 2.08 2.01 1.85 1.80 1.78 1.74 1.67 1.78 1.78
1.06 0.78 0.67 0.74 0.72 0.69 0.85 0.90 1.09 1.21 1.04 1.11 1.13 1.10 1.11 1.26 1.40 1.40 1.46 1.56 1.55 1.43 1.42 1.58 1.56 1.61 1.60 1.60 1.70 1.74 1.64 1.68 1.73 1.78 1.85 1.95 2.02 2.00 1.97 1.99 2.04 2.00 2.03 1.93 1.92 1.87 1.78 1.76 1.77
0.78 0.62 0.56 0.71 0.70 0.66 0.83 0.96 1.01 1.05 1.01 1.01 1.06 1.10 1.20 1.32 1.34 1.29 1.33 1.35 1.33 1.13 1.25 1.41 1.47 1.49 1.56 1.54 1.56 1.59 1.62 1.63 1.68 1.74 1.78 1.89 2.01 2.07 1.99 1.99 1.96 1.91 1.91 1.96 1.95 1.92 1.93 1.92 1.91
0.69 0.55 0.63 0.71 0.70 0.74 0.85 0.91 1.07 1.07 0.91 0.96 0.90 0.97 1.13 1.28 1.35 1.34 1.40 1.43 1.39 1.37 1.24 1.35 1.38 1.40 1.42 1.47 1.63 1.65 1.59 1.71 1.77 1.76 1.89 1.92 1.96 2.13 2.18 2.12 1.93 1.90 2.07 1.91 1.93 1.91 1.90 1.85 1.97
0.64 0.62 0.65 0.74 0.74 0.75 0.74 0.90 0.91 1.03 1.03 1.09 0.97 1.01 1.08 1.15 1.32 1.39 1.40 1.46 1.50 1.47 1.36 1.51 1.51 1.59 1.58 1.64 1.69 1.66 1.68 1.77 1.79 1.82 2.01 2.04 2.14 2.16 2.16 2.11 2.01 2.05 2.08 2.01 2.05 2.08 2.05 2.07 2.04
0.65 0.64 0.67 0.75 0.75 0.78 0.84 0.84 0.87 1.08 1.28 1.23 1.09 1.02 0.99 1.09 1.26 1.41 1.49 1.51 1.52 1.45 1.49 1.57 1.62 1.66 1.67 1.64 1.69 1.71 1.73 1.79 1.85 1.88 1.95 2.07 2.10 2.14 2.20 2.18 2.10 2.16 2.19 2.10 2.03 2.04 2.10 2.13 2.11
0.71 0.63 0.64 0.74 0.77 0.86 0.82 0.88 0.99 1.14 1.24 1.17 1.15 1.16 1.08 1.13 1.21 1.35 1.44 1.51 1.55 1.58 1.55 1.58 1.64 1.68 1.72 1.70 1.71 1.69 1.74 1.79 1.86 1.88 1.84 1.92 2.00 2.07 2.10 2.16 2.18 2.16 2.20 2.23 2.13 2.08 2.07 2.07 2.10
0.72 0.59 0.54 0.70 0.80 0.82 0.91 0.73 0.88 1.06 1.04 1.00 1.08 1.16 1.15 1.19 1.28 1.27 1.34 1.51 1.61 1.71 1.73 1.70 1.65 1.67 1.63 1.68 1.75 1.75 1.72 1.75 1.78 1.80 1.87 1.85 1.94 2.00 2.02 2.07 2.15 2.19 2.19 2.15 2.21 2.18 2.18 2.08 2.11
0.60 0.57 0.50 0.62 0.80 0.85 0.73 0.61 0.92 0.99 0.98 0.99 1.17 1.30 1.16 1.16 1.27 1.26 1.36 1.52 1.73 1.72 1.86 1.78 1.77 1.78 1.75 1.67 1.69 1.68 1.68 1.74 1.83 1.89 1.93 2.06 2.06 2.04 1.98 2.01 2.07 2.17 2.10 2.12 2.14 2.12 2.06 2.05 2.10
0.58 0.51 0.57 0.61 0.75 0.73 0.71 0.69 0.92 1.03 1.03 1.02 1.18 1.34 1.24 1.11 1.19 1.23 1.32 1.55 1.69 1.74 1.79 1.80 1.84 1.82 1.88 1.77 1.80 1.70 1.67 1.69 1.72 1.92 2.02 2.06 2.06 1.79 1.84 1.99 2.05 2.19 2.12 2.15 2.15 2.07 2.11 2.03 2.02
0.48 0.54 0.62 0.60 0.68 0.70 0.60 0.64 0.83 0.96 1.01 1.04 1.11 1.25 1.24 1.14 1.05 1.15 1.39 1.53 1.61 1.75 1.82 1.79 1.87 1.88 1.98 1.91 1.95 1.95 1.92 1.90 2.01 2.06 2.19 2.07 1.89 1.78 1.76 1.89 2.16 2.24 2.30 2.30 2.16 2.00 2.11 2.13 2.12
0.59 0.64 0.62 0.67 0.71 0.66 0.61 0.69 0.77 0.90 0.98 0.98 1.05 1.06 1.31 1.20 1.09 1.11 1.33 1.41 1.53 1.63 1.74 1.78 1.74 1.90 1.97 1.90 1.94 1.90 1.91 1.96 2.05 1.99 1.91 1.86 1.74 1.75 1.78 1.73 2.04 2.23 2.14 2.15 2.08 2.01 1.98 1.93 2.11
0.58 0.63 0.61 0.67 0.71 0.65 0.60 0.58 0.70 0.87 0.92 1.00 1.07 1.09 1.16 1.28 1.20 1.19 1.32 1.40 1.35 1.45 1.60 1.68 1.71 1.77 1.91 1.93 1.91 1.99 1.98 2.07 2.02 1.88 1.87 1.79 1.80 1.81 1.73 1.59 1.68 1.87 1.91 1.90 1.91 1.89 1.80 1.92 2.09
0.56 0.61 0.69 0.66 0.67 0.66 0.60 0.53 0.61 0.86 1.00 1.09 1.11 1.05 1.07 1.25 1.12 1.19 1.30 1.40 1.41 1.39 1.47 1.55 1.55 1.58 1.67 1.85 1.90 1.99 2.07 2.03 1.84 1.76 1.69 1.71 1.75 1.81 1.93 1.90 1.76 1.80 1.82 1.67 1.73 1.84 1.79 1.72 1.92
0.48 0.64 0.67 0.70 0.62 0.48 0.58 0.39 0.56 0.70 0.85 0.98 1.06 0.97 1.10 1.16 1.09 1.24 1.30 1.40 1.39 1.35 1.44 1.56 1.53 1.50 1.53 1.71 1.87 1.85 1.66 1.61 1.68 1.69 1.67 1.67 1.66 1.82 1.89 2.19 1.91 1.72 1.64 1.59 1.61 1.83 1.83 1.74 1.71
0.49 0.62 0.64 0.70 0.58 0.55 0.52 0.43 0.49 0.69 0.76 0.86 0.93 0.90 1.06 1.00 1.07 1.25 1.34 1.38 1.51 1.38 1.35 1.51 1.48 1.48 1.54 1.60 1.79 1.68 1.65 1.62 1.68 1.71 1.61 1.61 1.59 1.69 1.53 1.49 1.46 1.39 1.46 1.41 1.41 1.52 1.58 1.76 1.89
0.51 0.61 0.64 0.66 0.58 0.47 0.53 0.49 0.42 0.55 0.65 0.82 0.87 0.90 1.03 1.07 1.06 1.22 1.46 1.55 1.57 1.41 1.42 1.50 1.43 1.47 1.62 1.61 1.60 1.54 1.58 1.54 1.53 1.51 1.41 1.37 1.35 1.23 1.28 1.26 1.19 1.15 1.12 1.14 1.24 1.42 1.62 1.77 1.86
0.43 0.50 0.49 0.46 0.42 0.43 0.57 0.48 0.46 0.65 0.76 0.81 0.78 0.88 1.01 1.12 1.08 1.23 1.38 1.48 1.59 1.33 1.40 1.50 1.48 1.43 1.56 1.57 1.55 1.53 1.61 1.60 1.48 1.39 1.25 1.15 1.01 1.06 1.01 0.97 0.99 1.04 1.06 1.03 1.12 1.28 1.43 1.73 1.68
0.38 0.43 0.43 0.39 0.41 0.46 0.55 0.40 0.47 0.65 0.70 0.78 0.92 1.04 1.07 1.13 1.10 1.24 1.40 1.58 1.40 1.36 1.44 1.48 1.52 1.48 1.58 1.61 1.60 1.69 1.72 1.62 1.54 1.40 1.13 0.97 1.00 1.02 1.13 1.04 0.95 0.93 0.93 0.96 1.09 1.14 1.16 1.34 1.59
0.38 0.38 0.49 0.53 0.55 0.44 0.45 0.50 0.60 0.69 0.69 0.76 0.84 0.93 1.08 1.19 1.18 1.26 1.45 1.50 1.29 1.37 1.37 1.45 1.49 1.54 1.59 1.62 1.67 1.69 1.67 1.61 1.42 1.19 1.15 1.16 1.24 1.28 1.38 1.30 1.14 0.99 0.98 1.00 1.09 1.02 0.96 1.01 1.17
0.37 0.45 0.41 0.51 0.38 0.35 0.42 0.48 0.50 0.60 0.67 0.78 0.80 0.98 1.14 1.22 1.24 1.34 1.41 1.33 1.33 1.42 1.51 1.58 1.56 1.58 1.65 1.68 1.69 1.64 1.61 1.51 1.28 1.34 1.44 1.41 1.33 1.34 1.36 1.38 1.31 1.16 1.03 1.11 1.04 0.96 0.89 0.74 0.83
0.35 0.33 0.42 0.47 0.47 0.38 0.39 0.46 0.65 0.65 0.73 0.84 1.00 1.23 1.25 1.39 1.40 1.40 1.39 1.20 1.29 1.46 1.59 1.63 1.63 1.59 1.65 1.70 1.65 1.56 1.35 1.23 1.36 1.48 1.56 1.52 1.51 1.44 1.37 1.35 1.36 1.36 1.35 1.30 1.11 1.05 0.98 0.82 0.76
0.36 0.39 0.39 0.38 0.43 0.45 0.45 0.47 0.75 0.75 0.82 0.96 1.03 1.09 1.21 1.31 1.52 1.40 1.34 1.24 1.36 1.45 1.60 1.68 1.66 1.62 1.77 1.69 1.51 1.34 1.29 1.35 1.38 1.37 1.54 1.59 1.58 1.57 1.42 1.34 1.36 1.37 1.42 1.39 1.25 1.14 1.07 0.88 0.73

GFSSGP_prec_pwat_279.txt.gz
Precipitable_Water
2.27 2.30 2.22 1.81 0.91 0.88 0.77 0.85 1.08 1.04 1.05 1.24 1.32 1.21 1.11 1.15 1.00 0.74 1.40 1.46 1.50 1.57 1.77 1.63 1.64 1.75 1.70 1.78 1.79 1.72 1.77 1.67 1.74 1.76 1.72 1.69 1.74 1.79 1.80 1.75 1.75 1.73 1.73 1.77 1.77 1.73 1.66 1.58 1.68
2.27 2.22 1.93 1.38 0.77 0.66 0.78 0.98 0.83 0.99 1.09 1.19 1.16 1.15 1.09 1.03 1.35 1.25 1.23 1.51 1.51 1.62 1.79 1.65 1.69 1.73 1.73 1.81 1.75 1.70 1.72 1.73 1.68 1.68 1.63 1.67 1.69 1.65 1.69 1.74 1.71 1.68 1.68 1.72 1.67 1.69 1.79 1.73 1.63
2.16 2.10 1.33 0.90 0.71 0.61 0.76 0.88 0.89 0.99 1.02 1.06 0.93 1.01 1.02 0.99 1.26 1.21 1.44 1.50 1.58 1.65 1.77 1.71 1.67 1.75 1.71 1.82 1.73 1.62 1.59 1.76 1.76 1.67 1.70 1.75 1.73 1.72 1.71 1.63 1.62 1.67 1.71 1.74 1.73 1.74 1.75 1.76 1.84
1.93 1.60 1.15 0.75 0.70 0.81 0.90 0.90 0.95 1.00 1.04 1.04 0.87 0.73 1.10 1.30 1.20 1.38 1.48 1.52 1.55 1.65 1.74 1.75 1.68 1.67 1.63 1.73 1.72 1.72 1.78 1.86 1.75 1.82 1.76 1.78 1.82 1.76 1.68 1.73 1.57 1.66 1.69 1.65 1.67 1.74 1.75 1.76 1.78
1.78 1.30 0.85 0.73 0.75 0.92 1.01 1.10 1.08 1.02 0.99 0.99 0.94 0.74 0.92 1.32 1.46 1.50 1.40 1.49 1.47 1.59 1.70 1.75 1.72 1.67 1.63 1.60 1.78 1.89 1.79 1.71 1.72 1.73 1.67 1.79 1.79 1.78 1.73 1.78 1.76 1.65 1.65 1.64 1.55 1.65 1.73 1.72 1.75
1.21 1.11 0.76 0.63 0.71 0.93 1.07 1.20 1.22 1.08 0.97 0.97 1.01 0.84 0.93 1.42 1.37 1.41 1.39 1.44 1.51 1.45 1.61 1.72 1.78 1.72 1.68 1.66 1.83 1.80 1.79 1.76 1.79 1.75 1.87 1.85 1.91 1.95 1.89 1.75 1.69 1.69 1.64 1.77 1.69 1.67 1.62 1.61 1.58
0.98 0.95 0.67 0.64 0.64 0.75 0.87 1.20 1.13 1.03 0.87 0.88 1.01 0.90 1.07 1.27 1.45 1.40 1.35 1.42 1.45 1.48 1.50 1.63 1.76 1.77 1.69 1.75 1.82 1.74 1.66 1.74 1.84 1.88 1.80 1.81 1.81 1.89 1.86 1.85 1.83 1.80 1.75 1.67 1.70 1.70 1.66 1.62 1.57
1.06 0.92 0.69 0.65 0.63 0.62 0.90 1.07 1.19 1.07 0.92 1.07 1.08 0.88 0.93 1.26 1.42 1.42 1.33 1.32 1.36 1.43 1.48 1.54 1.69 1.75 1.69 1.74 1.74 1.89 1.78 1.68 1.70 1.72 1.78 1.84 1.91 1.91 1.96 1.97 2.06 2.09 1.87 1.83 1.75 1.62 1.66 1.74 1.75
1.12 0.71 0.58 0.61 0.64 0.71 0.93 0.89 1.12 1.22 1.07 1.02 1.04 1.12 1.21 1.39 1.49 1.36 1.31 1.38 1.35 1.35 1.42 1.52 1.60 1.74 1.65 1.72 1.86 1.78 1.72 1.69 1.82 1.82 1.89 1.94 1.97 1.96 1.98 2.01 2.05 2.03 2.10 1.95 1.91 1.87 1.77 1.73 1.80
0.81 0.65 0.58 0.71 0.72 0.72 0.82 0.86 0.92 0.98 0.98 0.95 0.96 1.19 1.35 1.38 1.40 1.33 1.33 1.34 1.36 1.28 1.30 1.44 1.50 1.60 1.61 1.66 1.74 1.74 1.69 1.67 1.76 1.80 1.84 1.98 2.06 2.14 2.08 2.02 2.00 2.01 1.95 2.00 2.02 1.94 1.93 1.87 1.82
0.76 0.61 0.64 0.69 0.77 0.80 0.74 0.83 0.99 0.98 0.96 0.89 0.84 0.99 1.24 1.28 1.35 1.37 1.41 1.40 1.26 1.17 1.28 1.39 1.44 1.53 1.53 1.50 1.56 1.64 1.64 1.74 1.80 1.84 1.90 1.94 2.03 2.13 2.19 2.09 2.08 2.02 2.02 2.04 1.98 1.99 1.92 1.90 1.92
0.64 0.64 0.66 0.71 0.81 0.80 0.74 0.88 0.93 1.04 1.04 0.97 0.97 1.00 1.12 1.24 1.28 1.34 1.41 1.43 1.35 1.35 1.24 1.29 1.38 1.41 1.44 1.50 1.62 1.61 1.61 1.78 1.81 1.84 1.95 2.00 2.12 2.13 2.15 2.18 2.15 2.14 2.08 2.04 2.06 2.04 1.98 1.95 1.99
0.68 0.69 0.75 0.78 0.80 0.84 0.87 0.83 0.92 0.97 1.14 1.16 1.14 1.08 1.14 1.24 1.33 1.45 1.51 1.55 1.52 1.42 1.33 1.30 1.38 1.41 1.46 1.58 1.68 1.64 1.67 1.72 1.82 1.86 1.92 2.02 2.08 2.16 2.22 2.21 2.21 2.21 2.18 2.18 2.10 2.06 2.07 2.10 2.16
0.69 0.70 0.73 0.81 0.76 0.84 0.81 0.82 0.92 0.99 1.11 1.10 1.06 1.10 1.19 1.27 1.30 1.44 1.58 1.59 1.65 1.68 1.57 1.60 1.55 1.62 1.65 1.63 1.66 1.65 1.68 1.72 1.77 1.86 1.85 1.91 1.98 2.07 2.14 2.22 2.21 2.25 2.22 2.23 2.22 2.14 2.10 2.05 2.12
0.69 0.64 0.71 0.79 0.78 0.78 0.88 0.71 0.74 1.05 1.12 1.04 1.09 1.08 1.03 1.19 1.24 1.31 1.52 1.63 1.73 1.73 1.83 1.77 1.67 1.71 1.72 1.71 1.75 1.77 1.75 1.79 1.77 1.83 1.87 1.94 1.95 1.94 2.05 2.04 2.16 2.25 2.27 2.20 2.19 2.22 2.20 2.16 2.13
0.61 0.61 0.54 0.72 0.79 0.85 0.73 0.49 0.83 1.04 1.03 0.92 1.06 1.12 1.05 0.99 1.05 1.22 1.52 1.65 1.74 1.80 1.88 1.84 1.81 1.74 1.73 1.70 1.74 1.76 1.78 1.83 1.87 1.89 1.93 1.96 1.99 2.03 1.80 1.85 1.92 2.18 2.27 2.22 2.18 2.20 2.11 2.06 2.03
0.56 0.47 0.55 0.67 0.88 0.83 0.74 0.59 0.81 0.99 0.99 0.98 1.05 1.15 1.16 0.98 1.00 1.12 1.44 1.60 1.69 1.75 1.78 1.72 1.80 1.80 1.84 1.74 1.77 1.80 1.86 1.80 1.81 1.85 1.90 1.99 2.00 2.05 1.96 1.78 1.85 1.99 2.22 2.25 2.22 2.22 2.16 2.04 2.12
0.47 0.50 0.57 0.63 0.77 0.84 0.74 0.62 0.79 0.91 0.95 0.99 1.02 1.13 1.18 1.06 0.94 1.15 1.28 1.49 1.63 1.70 1.73 1.75 1.78 1.84 1.90 1.85 1.87 1.95 2.00 1.98 1.99 1.97 1.97 2.12 2.00 1.89 1.78 1.78 1.88 2.16 2.17 2.09 2.14 2.08 2.05 2.05 2.07
0.55 0.53 0.57 0.67 0.77 0.75 0.68 0.65 0.67 0.92 0.94 0.96 1.01 1.11 1.21 1.20 1.19 1.23 1.25 1.33 1.49 1.61 1.69 1.70 1.75 1.81 1.90 1.92 1.93 1.92 1.90 2.00 1.99 2.00 1.93 1.86 1.79 1.74 1.76 1.69 1.78 1.96 2.08 2.08 2.05 2.04 1.97 1.86 1.87
0.51 0.55 0.58 0.66 0.74 0.68 0.67 0.62 0.74 0.86 0.91 0.99 1.02 1.11 1.20 1.27 1.16 1.17 1.26 1.30 1.32 1.41 1.54 1.62 1.73 1.78 1.82 1.85 1.90 2.00 2.00 2.06 2.03 1.89 1.86 1.87 1.83 1.78 1.76 1.84 1.76 1.72 1.82 1.85 1.85 1.90 1.82 1.74 1.86
0.49 0.57 0.59 0.63 0.69 0.70 0.64 0.57 0.62 0.81 0.95 1.02 1.03 1.14 1.18 1.23 1.15 1.17 1.24 1.29 1.25 1.29 1.45 1.53 1.58 1.70 1.83 1.89 1.91 1.96 2.09 2.05 1.87 1.79 1.79 1.88 1.85 1.81 1.90 1.98 2.03 1.86 1.81 1.70 1.65 1.61 1.64 1.61 1.70
0.45 0.61 0.58 0.64 0.61 0.53 0.64 0.43 0.54 0.68 0.75 0.92 0.99 1.04 1.11 1.13 1.22 1.25 1.25 1.26 1.28 1.30 1.40 1.44 1.52 1.56 1.56 1.73 1.80 1.82 1.72 1.59 1.75 1.76 1.78 1.70 1.74 1.74 1.80 1.66 1.57 1.53 1.57 1.51 1.48 1.56 1.52 1.58 1.43
0.49 0.52 0.49 0.59 0.62 0.60 0.56 0.47 0.47 0.67 0.61 0.77 0.94 0.97 1.03 1.13 1.18 1.22 1.33 1.29 1.34 1.33 1.38 1.47 1.47 1.45 1.46 1.51 1.67 1.66 1.63 1.63 1.62 1.60 1.57 1.54 1.57 1.51 1.42 1.39 1.32 1.16 1.13 1.19 1.26 1.32 1.40 1.54 1.64
0.52 0.46 0.49 0.61 0.58 0.48 0.53 0.52 0.45 0.47 0.57 0.80 0.95 0.96 1.00 1.16 1.22 1.25 1.41 1.50 1.43 1.35 1.33 1.39 1.43 1.41 1.46 1.50 1.53 1.56 1.56 1.55 1.47 1.45 1.38 1.31 1.31 1.16 1.16 1.07 1.08 1.13 1.12 1.06 1.15 1.20 1.25 1.44 1.64
0.41 0.40 0.39 0.42 0.43 0.43 0.57 0.52 0.48 0.57 0.68 0.76 0.82 0.88 0.99 1.11 1.18 1.20 1.23 1.40 1.37 1.27 1.28 1.39 1.46 1.37 1.45 1.51 1.62 1.64 1.61 1.64 1.55 1.50 1.32 1.16 1.01 1.03 1.01 0.99 0.93 0.92 0.95 1.02 1.09 1.05 1.04 1.12 1.32
0.38 0.36 0.29 0.30 0.36 0.42 0.54 0.46 0.47 0.58 0.70 0.77 0.79 0.91 1.02 1.06 1.16 1.13 1.23 1.37 1.39 1.22 1.36 1.46 1.52 1.43 1.53 1.63 1.66 1.69 1.71 1.74 1.64 1.55 1.36 1.16 1.10 1.17 1.28 1.23 1.15 1.07 1.05 1.09 1.03 0.94 0.89 0.92 1.03
0.34 0.33 0.41 0.39 0.48 0.44 0.49 0.53 0.57 0.60 0.67 0.72 0.77 0.84 0.95 1.07 1.11 1.10 1.20 1.35 1.35 1.25 1.40 1.51 1.50 1.50 1.55 1.59 1.65 1.65 1.71 1.64 1.54 1.42 1.30 1.42 1.46 1.32 1.32 1.32 1.26 1.24 1.23 1.13 1.02 0.95 0.84 0.77 0.78
0.35 0.42 0.34 0.40 0.29 0.33 0.43 0.44 0.46 0.57 0.63 0.73 0.77 0.80 0.89 1.10 1.21 1.27 1.30 1.32 1.25 1.35 1.54 1.66 1.59 1.48 1.55 1.61 1.65 1.68 1.67 1.59 1.37 1.23 1.46 1.57 1.62 1.51 1.37 1.28 1.26 1.26 1.32 1.32 1.21 1.12 1.04 0.84 0.77
0.32 0.35 0.38 0.39 0.40 0.34 0.35 0.40 0.59 0.62 0.70 0.74 0.79 0.80 0.89 1.04 1.15 1.22 1.37 1.35 1.23 1.44 1.61 1.56 1.54 1.52 1.59 1.70 1.68 1.65 1.60 1.39 1.19 1.38 1.48 1.60 1.65 1.57 1.45 1.32 1.30 1.27 1.27 1.31 1.27 1.23 1.14 1.01 0.82
0.31 0.29 0.33 0.33 0.34 0.39 0.37 0.37 0.67 0.69 0.75 0.81 0.79 0.81 0.98 1.15 1.15 1.30 1.45 1.39 1.28 1.43 1.56 1.47 1.54 1.52 1.64 1.74 1.73 1.65 1.50 1.29 1.40 1.49 1.54 1.67 1.64 1.67 1.60 1.44 1.33 1.27 1.27 1.30 1.24 1.20 1.11 0.99 0.86

GFSSGP_prec_pwat_285.txt.gz
Precipitable_Water
2.08 2.05 2.01 1.68 0.92 0.89 0.64 0.68 0.93 0.90 0.96 1.11 1.04 1.07 1.06 1.13 0.99 0.70 1.37 1.31 1.28 1.48 1.64 1.72 1.78 1.86 1.70 1.67 1.71 1.77 1.71 1.73 1.75 1.75 1.77 1.80 1.80 1.77 1.74 1.72 1.71 1.75 1.74 1.81 1.60 1.58 1.70 1.67 1.79
2.05 1.98 1.78 1.18 0.66 0.51 0.62 0.81 0.76 0.92 0.98 1.05 1.05 1.12 1.08 1.02 1.37 1.21 1.16 1.36 1.32 1.52 1.59 1.67 1.76 1.86 1.80 1.76 1.68 1.79 1.78 1.71 1.71 1.72 1.73 1.78 1.79 1.74 1.73 1.73 1.74 1.81 1.78 1.82 1.78 1.74 1.65 1.79 1.82
1.96 1.84 1.12 0.84 0.75 0.58 0.64 0.84 0.88 1.00 1.06 0.97 0.92 1.15 1.12 1.07 1.38 1.14 1.40 1.41 1.43 1.52 1.55 1.61 1.72 1.83 1.79 1.75 1.81 1.71 1.80 1.79 1.74 1.72 1.74 1.76 1.70 1.75 1.84 1.79 1.78 1.77 1.83 1.69 1.77 1.80 1.72 1.70 1.73
1.64 1.34 1.03 0.73 0.67 0.80 0.83 0.94 1.02 0.97 0.99 1.06 0.86 0.76 1.09 1.46 1.22 1.32 1.48 1.53 1.52 1.45 1.54 1.65 1.65 1.80 1.85 1.73 1.77 1.83 1.76 1.72 1.66 1.71 1.73 1.75 1.74 1.72 1.70 1.78 1.73 1.72 1.79 1.78 1.85 1.82 1.79 1.90 1.90
1.52 0.96 0.67 0.66 0.68 0.82 0.92 1.03 1.08 0.94 0.90 0.95 0.86 0.69 0.83 1.23 1.41 1.43 1.44 1.55 1.55 1.49 1.58 1.68 1.67 1.79 1.84 1.83 1.60 1.73 1.80 1.71 1.86 1.90 1.92 1.86 1.77 1.79 1.81 1.66 1.65 1.68 1.72 1.70 1.73 1.81 1.78 1.80 1.84
0.98 0.89 0.57 0.53 0.63 0.81 0.94 1.09 1.08 0.96 0.92 0.92 0.89 0.75 0.86 1.31 1.31 1.40 1.50 1.54 1.64 1.51 1.62 1.74 1.76 1.79 1.78 1.74 1.73 1.93 1.87 1.83 1.89 1.81 1.80 1.88 1.91 1.80 1.80 1.77 1.71 1.68 1.74 1.72 1.66 1.73 1.78 1.74 1.75
0.84 0.70 0.57 0.59 0.63 0.72 0.88 1.09 1.03 0.94 0.88 0.86 1.02 0.83 0.96 1.15 1.38 1.45 1.47 1.58 1.64 1.61 1.65 1.67 1.67 1.75 1.68 1.80 1.80 1.74 1.70 1.73 1.77 1.75 1.87 1.88 1.87 1.91 1.85 1.76 1.73 1.72 1.66 1.84 1.95 1.77 1.71 1.69 1.69
0.91 0.74 0.61 0.64 0.61 0.65 0.86 1.05 1.14 0.99 0.93 1.10 1.20 0.90 0.82 1.12 1.34 1.40 1.46 1.51 1.58 1.59 1.67 1.65 1.67 1.68 1.68 1.80 1.86 1.85 1.76 1.91 1.87 1.78 1.79 1.84 1.92 1.91 1.94 1.99 2.01 2.04 1.86 1.83 1.75 1.80 1.79 1.71 1.75
1.00 0.62 0.52 0.57 0.63 0.72 0.91 0.95 1.15 1.22 1.05 1.01 1.13 1.20 1.21 1.27 1.32 1.27 1.27 1.35 1.45 1.50 1.56 1.65 1.65 1.64 1.67 1.77 1.76 1.72 1.69 1.70 1.75 1.81 1.90 1.97 2.10 2.13 2.17 2.18 2.09 2.03 2.05 2.12 1.92 1.91 1.76 1.75 1.81
0.72 0.55 0.53 0.69 0.77 0.76 0.88 0.94 1.04 1.07 1.01 0.96 1.07 1.27 1.36 1.31 1.23 1.12 1.11 1.08 1.18 1.28 1.41 1.54 1.62 1.62 1.60 1.65 1.72 1.86 1.74 1.64 1.68 1.77 1.88 2.07 2.13 2.14 2.13 2.09 2.08 2.05 2.04 1.99 2.07 2.04 2.01 1.98 1.88
0.68 0.52 0.61 0.67 0.78 0.85 0.86 0.89 1.07 1.03 0.90 1.00 0.99 1.17 1.27 1.23 1.17 1.10 1.09 1.09 1.09 1.24 1.32 1.43 1.55 1.65 1.58 1.54 1.63 1.72 1.71 1.66 1.69 1.84 1.88 2.08 2.18 2.19 2.18 2.18 2.11 2.15 2.19 2.22 2.10 2.09 2.09 1.96 2.00
0.59 0.61 0.67 0.72 0.81 0.81 0.80 0.92 0.94 1.05 0.97 1.13 1.16 1.27 1.25 1.15 1.09 1.10 1.19 1.23 1.25 1.24 1.27 1.36 1.48 1.59 1.60 1.54 1.58 1.67 1.66 1.72 1.77 1.85 1.98 2.00 2.01 2.06 2.14 2.16 2.12 2.19 2.25 2.24 2.23 2.13 2.08 2.06 1.95
0.63 0.64 0.70 0.77 0.80 0.80 0.87 0.85 0.95 1.06 1.11 1.23 1.22 1.21 1.14 1.16 1.10 1.30 1.41 1.44 1.44 1.27 1.27 1.32 1.42 1.48 1.58 1.51 1.56 1.67 1.66 1.76 1.81 1.86 1.91 1.93 1.96 2.02 2.11 2.12 2.16 2.22 2.28 2.27 2.30 2.28 2.15 2.11 2.11
0.69 0.71 0.72 0.77 0.80 0.82 0.76 0.85 0.97 1.08 1.21 1.23 1.24 1.14 1.09 1.13 1.23 1.40 1.50 1.57 1.56 1.50 1.37 1.28 1.31 1.39 1.49 1.50 1.62 1.63 1.66 1.74 1.78 1.80 1.87 1.90 1.91 1.94 2.01 2.06 2.07 2.11 2.17 2.19 2.26 2.27 2.25 2.17 2.16
0.69 0.62 0.66 0.72 0.76 0.74 0.83 0.73 0.80 1.05 1.17 1.13 1.24 1.20 1.16 1.13 1.28 1.40 1.64 1.70 1.72 1.67 1.60 1.44 1.44 1.50 1.51 1.55 1.68 1.71 1.72 1.70 1.70 1.80 1.91 1.94 1.98 1.96 1.95 2.00 1.94 1.97 2.00 2.06 2.15 2.21 2.27 2.18 2.20
0.62 0.60 0.45 0.62 0.73 0.80 0.78 0.57 0.82 1.03 1.05 1.07 1.18 1.23 1.17 1.16 1.21 1.43 1.64 1.74 1.79 1.76 1.75 1.64 1.61 1.60 1.61 1.58 1.64 1.70 1.75 1.77 1.79 1.87 1.93 1.96 1.97 2.05 2.00 2.03 1.94 1.88 1.81 1.92 2.08 2.17 2.16 2.14 2.15
0.59 0.47 0.46 0.50 0.76 0.77 0.74 0.63 0.83 1.02 1.00 1.00 1.09 1.20 1.15 1.13 1.17 1.33 1.58 1.66 1.76 1.80 1.78 1.76 1.72 1.65 1.68 1.70 1.66 1.67 1.75 1.84 1.93 2.01 2.01 1.99 2.02 2.08 2.01 1.80 1.80 1.77 1.80 1.91 2.08 2.11 2.16 2.08 2.07
0.50 0.49 0.50 0.48 0.63 0.75 0.69 0.62 0.79 0.93 0.95 0.94 1.03 1.11 1.11 1.10 1.13 1.22 1.43 1.60 1.67 1.79 1.79 1.79 1.81 1.81 1.84 1.89 1.80 1.80 1.87 1.95 2.03 2.03 2.02 1.98 2.01 1.96 1.77 1.80 1.74 1.87 1.89 1.95 2.09 2.07 2.08 2.08 2.06
0.56 0.53 0.52 0.52 0.63 0.68 0.67 0.60 0.72 0.85 0.90 0.92 0.96 1.04 1.12 1.05 1.15 1.09 1.22 1.44 1.53 1.62 1.76 1.78 1.78 1.81 1.82 1.80 1.69 1.76 1.81 1.96 2.02 2.05 2.03 1.97 1.96 1.92 1.88 1.87 1.76 1.89 1.90 1.81 1.86 1.87 1.91 1.94 2.01
0.56 0.51 0.50 0.58 0.59 0.66 0.66 0.57 0.68 0.76 0.80 0.88 0.93 1.02 1.10 1.07 1.13 1.12 1.04 1.14 1.34 1.42 1.52 1.64 1.67 1.74 1.76 1.77 1.83 1.89 1.93 1.99 2.03 2.10 2.00 1.91 1.91 1.92 1.94 1.81 1.77 1.70 1.63 1.75 1.78 1.81 1.64 1.53 1.61
0.51 0.52 0.50 0.48 0.54 0.59 0.61 0.54 0.60 0.72 0.80 0.85 0.94 1.03 1.11 1.09 1.10 1.14 1.11 1.06 1.14 1.27 1.38 1.45 1.56 1.69 1.75 1.79 1.88 1.92 1.98 1.97 2.00 1.97 1.93 1.92 1.91 1.81 1.78 1.65 1.46 1.39 1.38 1.31 1.33 1.36 1.30 1.21 1.39
0.41 0.55 0.50 0.48 0.44 0.41 0.59 0.42 0.56 0.60 0.62 0.74 0.81 0.90 1.02 1.12 1.16 1.20 1.26 1.13 1.10 1.14 1.32 1.39 1.47 1.53 1.61 1.75 1.73 1.73 1.71 1.64 1.69 1.67 1.71 1.72 1.71 1.61 1.53 1.43 1.24 1.12 1.10 1.11 1.17 1.26 1.27 1.29 1.24
0.36 0.47 0.44 0.47 0.45 0.48 0.52 0.45 0.52 0.59 0.50 0.57 0.71 0.84 0.97 1.07 1.16 1.14 1.20 1.29 1.34 1.21 1.21 1.32 1.35 1.44 1.54 1.55 1.59 1.65 1.64 1.66 1.65 1.67 1.62 1.65 1.58 1.49 1.39 1.17 1.04 1.03 1.02 1.09 1.16 1.15 1.15 1.17 1.14
0.32 0.34 0.43 0.48 0.43 0.39 0.50 0.47 0.48 0.51 0.52 0.52 0.66 0.81 0.96 1.03 1.11 1.12 1.21 1.31 1.34 1.38 1.23 1.25 1.28 1.34 1.51 1.54 1.54 1.52 1.54 1.59 1.58 1.60 1.60 1.64 1.51 1.36 1.13 1.08 1.11 1.11 1.09 1.11 1.04 1.01 0.99 0.98 1.03
0.25 0.24 0.25 0.34 0.34 0.35 0.51 0.46 0.48 0.55 0.60 0.59 0.60 0.76 0.91 0.99 1.02 1.07 1.10 1.17 1.25 1.31 1.17 1.21 1.24 1.24 1.39 1.45 1.54 1.54 1.59 1.64 1.67 1.64 1.64 1.47 1.38 1.23 1.21 1.20 1.18 1.19 1.30 1.24 1.17 1.08 0.97 0.87 0.87
0.24 0.25 0.29 0.28 0.29 0.35 0.47 0.38 0.42 0.55 0.65 0.65 0.66 0.75 0.90 0.95 1.02 1.12 1.13 1.14 1.23 1.33 1.22 1.17 1.23 1.28 1.44 1.51 1.49 1.63 1.70 1.72 1.73 1.67 1.47 1.32 1.32 1.43 1.50 1.34 1.24 1.23 1.27 1.19 1.23 1.23 1.20 1.11 0.96
0.26 0.28 0.39 0.33 0.36 0.30 0.37 0.40 0.44 0.53 0.60 0.62 0.62 0.72 0.79 0.89 0.98 1.13 1.16 1.25 1.26 1.29 1.29 1.21 1.24 1.32 1.50 1.59 1.51 1.57 1.69 1.75 1.69 1.56 1.41 1.30 1.53 1.57 1.56 1.44 1.31 1.32 1.27 1.18 1.18 1.17 1.16 1.20 1.11
0.28 0.41 0.31 0.36 0.28 0.27 0.33 0.32 0.27 0.43 0.51 0.59 0.61 0.66 0.75 0.89 1.02 1.12 1.20 1.32 1.40 1.50 1.36 1.35 1.40 1.39 1.52 1.68 1.58 1.62 1.74 1.76 1.69 1.53 1.26 1.41 1.50 1.66 1.63 1.54 1.44 1.43 1.35 1.23 1.17 1.15 1.15 1.11 1.05
0.26 0.29 0.35 0.37 0.37 0.28 0.25 0.27 0.39 0.43 0.48 0.54 0.63 0.74 0.76 0.86 1.03 1.14 1.25 1.36 1.47 1.56 1.41 1.38 1.46 1.48 1.55 1.71 1.70 1.75 1.77 1.77 1.66 1.53 1.38 1.57 1.66 1.70 1.72 1.69 1.57 1.47 1.38 1.30 1.22 1.16 1.13 1.04 0.92
0.29 0.31 0.34 0.28 0.30 0.35 0.32 0.27 0.41 0.49 0.52 0.60 0.67 0.75 0.86 0.91 0.98 1.13 1.25 1.31 1.42 1.52 1.41 1.48 1.57 1.65 1.77 1.80 1.79 1.82 1.82 1.77 1.63 1.28 1.48 1.63 1.65 1.77 1.79 1.74 1.62 1.51 1.45 1.34 1.20 1.14 1.09 0.94 0.82

GFSSGP_prec_pwat_291.txt.gz
Precipitable_Water
1.81 1.88 1.97 1.80 1.21 0.76 0.74 0.81 0.93 0.93 0.89 1.05 1.14 1.32 1.11 1.17 1.35 0.75 1.12 1.36 1.59 1.65 1.64 1.70 1.70 1.80 1.84 1.86 1.87 1.87 1.84 1.83 1.83 1.81 1.74 1.75 1.75 1.70 1.66 1.61 1.65 1.71 1.74 1.55 1.63 1.73 1.69 1.65 1.68
1.87 1.82 1.89 1.53 0.89 0.60 0.68 0.85 0.80 0.87 0.96 1.06 1.11 1.21 1.36 1.01 1.05 0.94 1.09 1.43 1.60 1.64 1.69 1.76 1.64 1.63 1.77 1.73 1.78 1.82 1.79 1.80 1.80 1.77 1.82 1.80 1.72 1.68 1.70 1.76 1.76 1.80 1.83 1.73 1.59 1.77 1.76 1.73 1.70
1.90 1.88 1.49 0.94 0.73 0.66 0.66 0.82 0.88 0.96 0.99 1.02 1.00 1.24 1.24 1.10 0.98 1.05 1.24 1.47 1.56 1.65 1.78 1.72 1.69 1.62 1.77 1.98 1.74 1.72 1.71 1.70 1.70 1.71 1.79 1.73 1.74 1.72 1.74 1.80 1.82 1.76 1.76 1.79 1.83 1.64 1.70 1.82 1.84
1.81 1.90 1.47 0.77 0.73 0.80 0.82 0.89 1.00 0.97 0.96 0.87 0.99 0.93 1.23 1.32 1.13 1.20 1.32 1.48 1.50 1.62 1.80 1.73 1.76 1.78 1.73 1.84 1.81 1.79 1.80 1.75 1.70 1.75 1.75 1.70 1.74 1.74 1.79 1.78 1.78 1.85 1.80 1.83 1.85 1.75 1.80 1.82 1.75
1.83 1.57 0.90 0.69 0.73 0.81 0.86 1.00 1.02 0.94 0.89 0.90 0.90 0.91 1.03 1.25 1.36 1.22 1.34 1.51 1.46 1.59 1.67 1.73 1.71 1.74 1.86 1.74 1.80 1.83 1.76 1.66 1.77 1.70 1.82 1.73 1.72 1.79 1.85 1.66 1.69 1.80 1.76 1.73 1.82 1.79 1.80 1.89 1.87
1.36 1.08 0.71 0.62 0.72 0.85 0.93 1.08 1.05 0.95 0.98 0.90 0.86 0.91 1.00 1.30 1.20 1.22 1.38 1.47 1.51 1.54 1.53 1.68 1.83 1.77 1.72 1.81 1.79 1.81 1.73 1.81 1.92 1.93 1.99 1.87 1.80 1.79 1.73 1.69 1.71 1.75 1.81 1.65 1.69 1.82 1.78 1.77 1.86
1.05 0.84 0.71 0.80 0.69 0.74 0.87 1.14 0.98 0.95 0.98 0.90 1.02 0.85 0.97 1.13 1.25 1.36 1.44 1.41 1.47 1.57 1.56 1.58 1.77 1.84 1.74 1.60 1.82 1.81 1.78 1.91 1.88 1.84 1.83 1.89 1.80 1.87 1.77 1.81 1.82 1.74 1.73 1.82 1.90 1.73 1.72 1.70 1.73
1.06 0.99 0.67 0.72 0.69 0.71 0.93 1.03 1.08 1.03 0.87 1.12 1.21 1.07 0.84 1.12 1.29 1.44 1.54 1.46 1.43 1.57 1.60 1.58 1.76 1.75 1.65 1.59 1.80 1.79 1.70 1.73 1.72 1.85 2.00 2.00 1.92 1.94 1.94 1.89 1.98 2.00 1.94 1.83 1.81 1.89 1.88 1.69 1.68
1.17 0.83 0.60 0.66 0.71 0.77 1.01 0.98 1.05 1.14 1.03 1.14 1.19 1.18 1.17 1.23 1.30 1.34 1.42 1.43 1.44 1.53 1.63 1.61 1.70 1.77 1.77 1.81 1.68 1.70 1.74 1.89 1.86 1.83 1.83 1.99 2.04 2.32 2.29 2.26 2.04 2.02 2.04 2.07 2.05 1.87 1.82 1.74 1.67
0.81 0.63 0.59 0.73 0.80 0.80 0.95 1.02 1.05 1.04 0.99 1.10 1.17 1.20 1.26 1.27 1.29 1.26 1.31 1.33 1.36 1.45 1.54 1.63 1.62 1.71 1.68 1.93 1.80 1.87 1.79 1.81 1.90 1.94 2.00 2.12 2.18 2.19 2.23 2.20 2.07 2.04 2.09 2.09 2.05 2.03 2.11 2.00 1.87
0.68 0.60 0.72 0.76 0.78 0.87 0.91 0.98 1.10 1.10 0.99 1.02 1.09 1.12 1.13 1.20 1.26 1.28 1.33 1.37 1.39 1.47 1.53 1.63 1.62 1.70 1.60 1.91 1.70 1.79 1.79 1.82 1.76 1.78 1.93 2.14 2.06 2.17 2.15 2.19 2.20 2.15 2.25 2.29 2.32 2.31 2.25 2.20 2.15
0.70 0.69 0.74 0.80 0.84 0.84 0.84 0.94 0.98 0.99 0.96 1.14 1.18 1.15 1.12 1.14 1.19 1.28 1.30 1.34 1.42 1.43 1.50 1.61 1.66 1.66 1.68 1.69 1.64 1.80 1.84 1.69 1.77 1.83 1.88 2.05 2.11 2.05 2.03 2.18 2.18 2.19 2.34 2.18 2.07 2.11 2.23 2.28 2.16
0.65 0.71 0.76 0.83 0.86 0.87 0.85 0.87 0.94 0.94 1.08 1.21 1.24 1.13 1.02 1.09 1.20 1.30 1.35 1.36 1.40 1.38 1.46 1.53 1.63 1.69 1.67 1.63 1.64 1.76 1.68 1.67 1.90 1.86 2.03 2.08 1.99 2.10 2.23 2.13 2.13 2.08 2.08 2.08 1.97 1.94 2.06 2.19 2.19
0.70 0.69 0.74 0.80 0.82 0.82 0.81 0.84 1.00 0.99 1.13 1.16 1.19 1.15 1.08 1.04 1.17 1.30 1.34 1.34 1.33 1.37 1.40 1.46 1.52 1.62 1.67 1.61 1.64 1.69 1.72 1.80 1.82 1.95 1.98 1.96 1.97 2.08 2.09 2.19 2.14 2.18 2.26 2.18 2.01 1.89 2.03 2.16 2.28
0.70 0.66 0.71 0.70 0.77 0.82 0.88 0.98 0.84 1.00 1.08 1.10 1.14 1.16 1.14 1.03 1.11 1.28 1.40 1.43 1.40 1.40 1.41 1.41 1.41 1.54 1.56 1.61 1.61 1.67 1.69 1.70 1.75 1.78 1.87 1.93 2.00 2.07 2.04 2.10 2.14 2.10 2.15 1.96 2.06 2.06 1.97 2.01 2.10
0.62 0.61 0.60 0.88 0.66 0.79 0.77 1.11 0.85 1.00 1.01 1.03 1.12 1.15 1.13 1.06 1.07 1.27 1.49 1.61 1.73 1.72 1.57 1.47 1.43 1.49 1.49 1.58 1.67 1.75 1.72 1.73 1.76 1.85 1.96 2.20 2.06 2.14 2.13 2.09 2.07 2.00 1.80 1.88 2.00 2.16 2.20 2.20 2.18
0.62 0.56 0.61 0.64 0.61 0.74 0.70 0.81 0.87 1.01 1.01 1.02 1.09 1.13 1.17 1.12 1.14 1.25 1.45 1.67 1.73 1.85 1.83 1.64 1.60 1.55 1.63 1.68 1.71 1.79 1.80 1.78 1.83 1.98 2.07 2.15 2.27 2.12 2.02 1.92 2.01 1.94 1.84 1.92 1.99 2.07 2.25 2.19 2.20
0.62 0.55 0.54 0.54 0.66 0.64 0.65 0.73 0.98 0.93 1.00 1.02 1.06 1.11 1.16 1.15 1.21 1.27 1.42 1.54 1.64 1.77 1.86 1.76 1.76 1.71 1.77 1.78 1.79 1.79 1.72 1.82 1.95 2.04 2.09 2.05 2.05 2.00 1.90 1.95 2.08 1.88 1.80 1.84 1.90 1.95 2.05 2.09 2.07
0.63 0.60 0.55 0.60 0.60 0.55 0.63 0.69 0.85 1.01 0.90 0.99 1.02 1.10 1.16 1.17 1.27 1.35 1.33 1.48 1.56 1.63 1.69 1.71 1.78 1.81 1.83 1.85 1.87 1.78 1.72 1.85 1.94 2.05 2.19 2.11 2.02 2.02 1.99 1.89 1.97 1.85 1.58 1.54 1.70 1.80 1.75 1.71 1.91
0.54 0.55 0.54 0.59 0.62 0.54 0.56 0.65 0.73 0.96 0.88 0.92 0.98 1.07 1.14 1.21 1.24 1.30 1.30 1.30 1.43 1.51 1.65 1.69 1.73 1.82 1.89 1.92 1.89 1.91 1.92 2.01 2.09 2.21 2.25 2.25 2.15 2.08 2.00 1.80 1.69 1.69 1.30 1.44 1.52 1.32 1.35 1.37 1.60
0.52 0.51 0.55 0.64 0.63 0.56 0.51 0.51 0.65 0.73 0.80 0.90 0.96 1.02 1.09 1.18 1.21 1.28 1.28 1.25 1.33 1.39 1.49 1.60 1.68 1.78 1.83 1.86 1.92 1.93 1.95 2.05 1.95 1.99 2.01 2.03 1.93 1.94 1.76 1.69 1.50 1.23 1.23 1.24 1.25 1.30 1.51 1.51 1.44
0.40 0.49 0.50 0.57 0.54 0.38 0.58 0.40 0.65 0.89 0.78 0.75 0.86 0.94 1.01 1.10 1.21 1.22 1.22 1.24 1.29 1.37 1.45 1.54 1.64 1.62 1.73 1.78 1.79 1.80 1.81 1.72 1.86 1.93 1.88 1.86 1.90 1.74 1.61 1.53 1.26 1.23 1.27 1.21 1.26 1.24 1.16 1.16 1.10
0.34 0.45 0.50 0.59 0.48 0.47 0.44 0.40 0.45 0.75 0.69 0.74 0.94 0.94 0.96 1.09 1.19 1.20 1.24 1.25 1.20 1.25 1.31 1.47 1.57 1.62 1.65 1.67 1.67 1.69 1.70 1.77 1.85 1.83 1.77 1.85 1.99 1.82 1.67 1.28 1.25 1.21 1.25 1.30 1.26 1.21 1.12 1.06 0.97
0.33 0.38 0.46 0.49 0.41 0.34 0.42 0.43 0.43 0.59 0.90 0.71 0.81 0.87 0.95 1.05 1.17 1.22 1.28 1.34 1.30 1.28 1.31 1.35 1.42 1.50 1.59 1.63 1.63 1.58 1.63 1.66 1.67 1.67 1.70 1.75 1.79 1.70 1.48 1.47 1.37 1.27 1.37 1.22 1.23 1.24 1.25 1.22 1.20
0.29 0.31 0.29 0.29 0.31 0.27 0.41 0.39 0.50 0.58 0.75 0.73 0.69 0.72 0.92 0.98 1.10 1.20 1.20 1.30 1.32 1.38 1.36 1.31 1.36 1.44 1.55 1.57 1.58 1.62 1.66 1.68 1.63 1.70 1.74 1.73 1.57 1.52 1.49 1.54 1.47 1.45 1.29 1.22 1.21 1.29 1.27 1.21 1.17
0.27 0.23 0.25 0.23 0.24 0.25 0.37 0.38 0.46 0.51 0.61 0.58 0.65 0.73 0.88 1.00 1.06 1.19 1.22 1.32 1.41 1.49 1.55 1.54 1.34 1.38 1.50 1.58 1.68 1.78 1.75 1.71 1.73 1.68 1.93 1.61 1.38 1.45 1.58 1.52 1.57 1.60 1.48 1.33 1.26 1.35 1.18 1.18 1.17
0.20 0.22 0.22 0.21 0.22 0.22 0.34 0.60 0.69 0.57 0.50 0.55 0.63 0.78 0.84 0.94 1.07 1.16 1.26 1.34 1.42 1.55 1.59 1.65 1.54 1.42 1.50 1.60 1.73 1.73 1.76 1.77 1.77 1.77 1.72 1.49 1.40 1.59 1.56 1.59 1.61 1.67 1.60 1.45 1.29 1.41 1.31 1.14 1.06
0.18 0.28 0.21 0.20 0.19 0.20 0.29 0.40 0.40 0.52 0.50 0.50 0.62 0.75 0.84 1.04 1.07 1.15 1.22 1.34 1.45 1.59 1.66 1.71 1.74 1.42 1.48 1.58 1.73 1.77 1.73 1.80 1.86 1.83 1.67 1.35 1.55 1.72 1.68 1.68 1.77 1.71 1.68 1.72 1.54 1.44 1.42 1.10 1.01
0.17 0.17 0.23 0.27 0.25 0.22 0.26 0.33 0.53 0.57 0.48 0.49 0.61 0.67 0.85 0.92 1.10 1.12 1.24 1.38 1.46 1.55 1.64 1.67 1.76 1.53 1.51 1.62 1.74 1.81 1.80 1.78 1.85 1.77 1.66 1.52 1.65 1.72 1.74 1.77 1.81 1.74 1.72 1.67 1.53 1.39 1.46 1.06 1.00
0.21 0.23 0.22 0.26 0.28 0.38 0.40 0.41 0.62 0.59 0.52 0.46 0.54 0.67 0.86 0.83 1.07 1.15 1.29 1.42 1.41 1.50 1.60 1.64 1.76 1.72 1.52 1.63 1.76 1.85 1.89 1.93 1.94 1.87 1.70 1.67 1.69 1.79 1.81 1.88 1.83 1.73 1.55 1.49 1.26 1.12 1.12 1.07 0.96